Tel Aviv, Israel

5:24 PM IST on January 17, 2019 (GMT +0200)
Ben Gurion

Weather History for LLBG - January, 2019

Change the Weather History Date:

Friday, January 11, 2019

  Actual Average Record
Temperature  
Mean Temperature 52 °F -  
Max Temperature 63 °F 61 °F 80 °F (2003)
Min Temperature 42 °F 47 °F 39 °F (1998)
Degree Days  
Heating Degree Days 12    
Growing Degree Days 2 (Base 50)    
Moisture  
Dew Point 40 °F    
Average Humidity 68    
Maximum Humidity 87    
Minimum Humidity 36    
Precipitation  
Precipitation 0.00 in - - ()
Sea Level Pressure  
Sea Level Pressure 30.12 in    
Wind  
Wind Speed 3 mph ()    
Max Wind Speed 11 mph    
Max Gust Speed -    
Visibility 6.0 miles    
Events      
Averages and records for this station are not official NWS values.
T = Trace of Precipitation, MM = Missing Value Source: Averaged Metar Reports

Daily Weather History Graph

Daily Weather History Graph

Search for Another Location

Airport or City:

Astronomy

Jan. 11, 2019 Rise Set
Actual Time 6:41 AM IST 4:54 PM IST
Civil Twilight 6:15 AM IST 5:21 PM IST
Nautical Twilight 5:44 AM IST 5:51 PM IST
Astronomical Twilight 5:15 AM IST 6:21 PM IST
Moon 10:01 AM IST (1/11) 9:42 PM IST (1/11)
Length of Visible Light 11h 06m
Length of Day
10h 13m
Waxing Crescent, 24% of the Moon is Illuminated
Jan 11
Waxing Crescent
Jan 14
First Quarter
Jan 21
Full
Jan 27
Last Quarter
Feb 4
New

Hourly Weather History & Observations

Time (IST) Temp. Windchill Dew Point Humidity Pressure Visibility Wind Dir Wind Speed Gust Speed Precip Events Conditions
12:20 AM 48.2 °F - 41.0 °F 76% 30.18 in - Variable 1.2 mph - N/A   Clear
12:50 AM 44.6 °F 43.1 °F 41.0 °F 87% 30.18 in - Variable 3.5 mph - N/A   Clear
1:20 AM 46.4 °F 45.2 °F 39.2 °F 76% 30.18 in - Variable 3.5 mph - N/A   Clear
1:50 AM 42.8 °F - 39.2 °F 87% 30.18 in - Variable 1.2 mph - N/A   Clear
2:00 AM 44 °F - 39 °F 77% 30.19 in - East 2.2 mph - -  
2:20 AM 42.8 °F - 39.2 °F 87% 30.18 in - Variable 2.3 mph - N/A   Clear
2:50 AM 42.8 °F - 39.2 °F 87% 30.15 in - Variable 1.2 mph - N/A   Clear
3:20 AM 44.6 °F - 37.4 °F 76% 30.15 in - Variable 2.3 mph - N/A   Clear
3:50 AM 42.8 °F - 37.4 °F 81% 30.15 in - Variable 2.3 mph - N/A   Clear
4:20 AM 44.6 °F - 37.4 °F 76% 30.15 in - Variable 2.3 mph - N/A   Clear
4:50 AM 42.8 °F - 37.4 °F 81% 30.15 in - Variable 2.3 mph - N/A   Clear
5:00 AM 43 °F - 37 °F 71% 30.17 in 6 mi East 2.2 mph - -  
5:20 AM 42.8 °F - 35.6 °F 76% 30.15 in - Variable 2.3 mph - N/A   Clear
5:50 AM 42.8 °F - 37.4 °F 81% 30.15 in - Variable 1.2 mph - N/A   Clear
6:20 AM 42.8 °F - 37.4 °F 81% 30.15 in - Variable 2.3 mph - N/A   Clear
6:50 AM 44.6 °F - 37.4 °F 76% 30.15 in - Variable 2.3 mph - N/A   Clear
7:20 AM 44.6 °F - 37.4 °F 76% 30.18 in - Variable 2.3 mph - N/A   Clear
7:50 AM 46.4 °F - 37.4 °F 71% 30.18 in - Variable 2.3 mph - N/A   Clear
8:20 AM 48.2 °F - 39.2 °F 71% 30.18 in - Variable 1.2 mph - N/A   Clear
10:20 AM 59.0 °F - 37.4 °F 45% 30.15 in - Variable 1.2 mph - N/A   Clear
10:50 AM 60.8 °F - 35.6 °F 39% 30.15 in - Variable 3.5 mph - N/A   Clear
11:20 AM 60.8 °F - 35.6 °F 39% 30.15 in - Variable 3.5 mph - N/A   Clear
11:50 AM 62.6 °F - 37.4 °F 39% 30.15 in - Variable 3.5 mph - N/A   Clear
12:20 PM 62.6 °F - 37.4 °F 39% 30.12 in - West 4.6 mph - N/A   Clear
12:50 PM 62.6 °F - 39.2 °F 42% 30.09 in - WNW 5.8 mph - N/A   Clear
1:20 PM 62.6 °F - 41.0 °F 45% 30.09 in - West 9.2 mph - N/A   Clear
1:50 PM 62.6 °F - 42.8 °F 48% 30.09 in - West 10.4 mph - N/A   Clear
2:00 PM 63 °F - 43 °F 36% 30.12 in - West 11.2 mph - -  
2:20 PM 62.6 °F - 41.0 °F 45% 30.09 in - NW 8.1 mph - N/A   Clear
2:50 PM 62.6 °F - 39.2 °F 42% 30.09 in - WNW 8.1 mph - N/A   Clear
3:20 PM 62.6 °F - 39.2 °F 42% 30.09 in - NW 9.2 mph - N/A   Clear
3:50 PM 60.8 °F - 41.0 °F 48% 30.09 in - NW 8.1 mph - N/A   Clear
5:50 PM 57.2 °F - 42.8 °F 59% 30.09 in - Variable 3.5 mph - N/A   Clear
6:20 PM 57.2 °F - 42.8 °F 59% 30.09 in - Variable 3.5 mph - N/A   Clear
6:50 PM 53.6 °F - 44.6 °F 72% 30.09 in - ESE 4.6 mph - N/A   Clear
7:20 PM 53.6 °F - 44.6 °F 72% 30.09 in - ESE 5.8 mph - N/A   Clear
7:50 PM 51.8 °F - 44.6 °F 76% 30.09 in - Variable 3.5 mph - N/A   Clear
8:20 PM 51.8 °F - 42.8 °F 71% 30.06 in - Variable 2.3 mph - N/A   Clear
8:50 PM 51.8 °F - 42.8 °F 71% 30.06 in - Variable 2.3 mph - N/A   Clear
9:20 PM 48.2 °F - 44.6 °F 87% 30.06 in - Variable 2.3 mph - N/A   Clear
9:50 PM 48.2 °F - 44.6 °F 87% 30.06 in - Variable 1.2 mph - N/A   Clear
10:20 PM 48.2 °F - 44.6 °F 87% 30.04 in - Variable 3.5 mph - N/A   Clear
10:50 PM 48.2 °F - 42.8 °F 82% 30.04 in - Variable 3.5 mph - N/A   Clear
11:00 PM 47 °F - 42 °F 78% 30.06 in 6 mi ESE 4.5 mph - -  
11:20 PM 46.4 °F - 42.8 °F 87% 30.04 in - Variable 2.3 mph - N/A   Clear
11:50 PM 44.6 °F - 41.0 °F 87% 30.04 in - Variable 1.2 mph - N/A   Clear